Location: Piotrkow Trybunalski
(51.4000°N, 19.6830°E)
Time: 15:15:29
(UTC+01:00)

Vanguard 2 - Pass Details

Date: 09 February 2023
Orbit: 553 x 2927 km, 32.9° (Epoch: 24 March)

Event Time Altitude Azimuth Distance (km) Brightness Sun altitude
Rises 01:25:11 0° 267° (W) 6,156 - -49.2°
Reaches altitude 10° 01:30:09 10° 256° (WSW) 5,414 - -48.8°
Maximum altitude 01:41:54 24° 211° (SSW) 4,644 - -47.7°
Drops below altitude 10° 01:54:08 10° 166° (SSE) 5,607 - -46.4°
Exits shadow 01:57:46 - 158° (SSE) 6,136 11.9 -46.0°
Sets 01:59:30 0° 154° (SSE) 6,411 12.1 -45.8°
